Home > Weather > Burlington > Past weeks

Flag for Canada Weather for the Past 2 Weeks in Burlington, Ontario, Canada

Now
35 °F

Chilly.


Feels Like: 28 °F
Forecast: 31 / 42 °F
Wind: 8 mph from Southwest

Location: Burlington Piers

Current Time: Feb 6, 2016 at 9:06:44 PM

Latest Report: Feb 6, 2016 at 8:00 PM


Visibility: N/A

Pressure: 30.17 "Hg

Humidity: 61%

Dew point: 22 °F

Location of BurlingtonLocation

Historic Weather in Burlington — Graph

°F

Burlington Temperature Yesterday

Maximum temperature yesterday: 35 °F (at 3:00 PM)
Minimum temperature yesterday: 29 °F (at 1:00 AM)
Average temperature yesterday: 32 °F

High & Low Weather Summary for the Past Weeks

 TemperatureHumidityPressure
High58 °F (Feb 3, 2:00 PM)96% (Feb 3, 6:00 AM)30.35 "Hg (Feb 3, 6:00 AM)
Low16 °F (Jan 24, 5:00 AM)44% (Feb 5, 4:00 PM)29.46 "Hg (Jan 31, 10:00 PM)
Average34 °F69%29.95 "Hg
* Reported Jan 22 7:00 PM — Feb 6 7:00 PM, Burlington, Weather by CustomWeather, © 2016

Note: Actual official high and low records may vary slightly from our data, if they occured in-between our weather recording intervals... More about our weather records

Advertising

Burlington Weather History for the Previous 24 Hours

 ConditionsComfort  
Time TempWeatherWind HumidityBarometerVisibility
7:00 PM
Sat, Feb 6
35 °FChilly.10 mph61%30.17 "HgN/A
6:00 PM36 °FChilly.14 mph57%30.16 "HgN/A
5:00 PM38 °FChilly.6 mph56%30.16 "HgN/A
4:00 PM37 °FChilly.9 mph47%30.16 "HgN/A
3:00 PM38 °FChilly.12 mph54%30.16 "HgN/A
2:00 PM38 °FChilly.9 mph46%30.17 "HgN/A
1:00 PM37 °FChilly.8 mph48%30.19 "HgN/A
12:00 PM36 °FChilly.12 mph56%30.22 "HgN/A
11:00 AM35 °FChilly.9 mph61%30.23 "HgN/A
10:00 AM35 °FChilly.8 mph68%30.24 "HgN/A
9:00 AM34 °FChilly.6 mph76%30.24 "HgN/A
8:00 AM34 °FChilly.7 mph76%30.23 "HgN/A
7:00 AM35 °FChilly.9 mph75%30.21 "HgN/A
6:00 AM36 °FChilly.8 mph68%30.19 "HgN/A
5:00 AM35 °FChilly.7 mph65%30.19 "HgN/A
4:00 AM36 °FChilly.8 mph63%30.21 "HgN/A
3:00 AM35 °FChilly.7 mph66%30.22 "HgN/A
2:00 AM34 °FChilly.5 mph68%30.23 "HgN/A
1:00 AM33 °FChilly.7 mph70%30.24 "HgN/A
12:00 AM33 °FChilly.6 mph74%30.26 "HgN/A
11:00 PM
Fri, Feb 5
31 °FChilly.6 mph76%30.28 "HgN/A
10:00 PM32 °FChilly.7 mph77%30.30 "HgN/A
9:00 PM32 °FChilly.8 mph72%30.32 "HgN/A
Weather by CustomWeather, © 2016

See weather overviewHow to use our weather pages